Weather History for Wheaton NDB, MN

Change the Weather History Date:

Thursday, February 28, 2013

  Actual Average Record
Temperature  
Mean Temperature 20 °F -  
Max Temperature 24 °F 34 °F 57 °F (1985)
Min Temperature 15 °F 15 °F -25 °F (1962)
Degree Days  
Heating Degree Days 46    
Moisture  
Dew Point 18 °F    
Average Humidity 87    
Maximum Humidity 93    
Minimum Humidity 74    
Precipitation  
Precipitation 0.00 in - - ()
Sea Level Pressure  
Sea Level Pressure 30.24 in    
Wind  
Wind Speed 11 mph (NNW)    
Max Wind Speed 14 mph    
Max Gust Speed 17 mph    
Visibility 10 miles    
Events      
Averages and records for this station are not official NWS values.
T = Trace of Precipitation, MM = Missing Value Source: NWS Daily Summary

Daily Weather History Graph

Daily Weather History Graph

Search for Another Location

Airport:

Trip Planner

Search our weather history database for the weather conditions in past years. The results will help you decide how hot, cold, wet, or windy it might be!

Date:

Astronomy

Feb. 28, 2013 Rise Set
Actual Time 7:06 AM CST 6:11 PM CST
Civil Twilight 6:36 AM CST 6:41 PM CST
Nautical Twilight 6:01 AM CST 7:16 PM CST
Astronomical Twilight 5:27 AM CST 7:50 PM CST
Moon 9:54 PM CST (2/28) 8:04 AM CST (2/28)
Length of Visible Light 12h 05m
Length of Day
11h 05m
Waning Gibbous, 90% of the Moon is Illuminated
Feb 28
Waning Gibbous
Mar 4
Last Quarter
Mar 11
New
Mar 19
First Quarter
Mar 27
Full

Hourly Weather History & Observations

Time (CST) Temp. Windchill Dew Point Humidity Pressure Visibility Wind Dir Wind Speed Gust Speed Precip Events Conditions
12:14 AM 17.6 °F 4.3 °F 15.8 °F 93% 30.17 in 10.0 mi NW 12.7 mph - N/A   Clear
12:35 AM 17.6 °F 3.7 °F 15.8 °F 93% 30.17 in 10.0 mi NW 13.8 mph - N/A   Clear
12:54 AM 17.6 °F 3.7 °F 15.8 °F 93% 30.17 in 10.0 mi NW 13.8 mph - N/A   Clear
1:14 AM 17.6 °F 3.7 °F 15.8 °F 93% 30.17 in 10.0 mi NW 13.8 mph - N/A   Clear
1:34 AM 17.6 °F 4.3 °F 15.8 °F 93% 30.18 in 10.0 mi NW 12.7 mph - N/A   Scattered Clouds
1:54 AM 17.6 °F 5.0 °F 15.8 °F 93% 30.18 in 10.0 mi NW 11.5 mph - N/A   Overcast
2:15 AM 19.4 °F 7.2 °F 17.6 °F 93% 30.19 in 10.0 mi NNW 11.5 mph - N/A   Overcast
2:34 AM 19.4 °F 7.2 °F 17.6 °F 93% 30.19 in 10.0 mi NNW 11.5 mph - N/A   Overcast
2:55 AM 19.4 °F 6.0 °F 17.6 °F 93% 30.19 in 10.0 mi NNW 13.8 mph - N/A   Overcast
3:14 AM 19.4 °F 7.9 °F 17.6 °F 93% 30.19 in 10.0 mi NNW 10.4 mph - N/A   Overcast
3:34 AM 19.4 °F 7.2 °F 17.6 °F 93% 30.19 in 10.0 mi NW 11.5 mph 17.3 mph N/A   Overcast
3:54 AM 19.4 °F 7.2 °F 17.6 °F 93% 30.19 in 10.0 mi NW 11.5 mph - N/A   Overcast
4:14 AM 19.4 °F 7.9 °F 17.6 °F 93% 30.20 in 10.0 mi NNW 10.4 mph - N/A   Overcast
4:34 AM 19.4 °F 7.2 °F 17.6 °F 93% 30.20 in 10.0 mi NNW 11.5 mph - N/A   Overcast
4:55 AM 21.2 °F 8.9 °F 17.6 °F 86% 30.20 in 10.0 mi NW 12.7 mph - N/A   Overcast
5:14 AM 21.2 °F 9.5 °F 17.6 °F 86% 30.21 in 10.0 mi NNW 11.5 mph - N/A   Overcast
5:34 AM 21.2 °F 10.9 °F 19.4 °F 93% 30.22 in 10.0 mi NW 9.2 mph - N/A   Overcast
5:55 AM 21.2 °F 10.9 °F 19.4 °F 93% 30.22 in 10.0 mi NW 9.2 mph - N/A   Overcast
6:14 AM 21.2 °F 10.9 °F 19.4 °F 93% 30.22 in 10.0 mi NW 9.2 mph - N/A   Overcast
6:34 AM 21.2 °F 10.1 °F 19.4 °F 93% 30.23 in 10.0 mi NNW 10.4 mph - N/A   Overcast
6:54 AM 21.2 °F 10.9 °F 19.4 °F 93% 30.23 in 10.0 mi NNW 9.2 mph - N/A   Overcast
7:14 AM 21.2 °F 10.9 °F 19.4 °F 93% 30.23 in 10.0 mi NNW 9.2 mph - N/A   Overcast
7:34 AM 21.2 °F 10.9 °F 19.4 °F 93% 30.23 in 10.0 mi NNW 9.2 mph - N/A   Overcast
8:15 AM 21.2 °F 11.7 °F 19.4 °F 93% 30.23 in 10.0 mi NNW 8.1 mph - N/A   Overcast
8:34 AM 21.2 °F 11.7 °F 19.4 °F 93% 30.24 in 10.0 mi NNW 8.1 mph - N/A   Overcast
8:55 AM 21.2 °F 10.9 °F 19.4 °F 93% 30.24 in 10.0 mi NNW 9.2 mph - N/A   Overcast
9:14 AM 21.2 °F 11.7 °F 19.4 °F 93% 30.24 in 10.0 mi NNW 8.1 mph - N/A   Overcast
9:35 AM 23.0 °F 13.1 °F 19.4 °F 86% 30.24 in 10.0 mi NNW 9.2 mph - N/A   Overcast
9:55 AM 23.0 °F 12.4 °F 19.4 °F 86% 30.25 in 10.0 mi NNW 10.4 mph - N/A   Overcast
10:15 AM 23.0 °F 11.1 °F 19.4 °F 86% 30.25 in 10.0 mi NNW 12.7 mph - N/A   Overcast
10:34 AM 23.0 °F 12.4 °F 19.4 °F 86% 30.25 in 10.0 mi NNW 10.4 mph - N/A   Overcast
10:55 AM 24.8 °F 16.1 °F 19.4 °F 80% 30.25 in 10.0 mi NNW 8.1 mph - N/A   Overcast
11:15 AM 24.8 °F 15.3 °F 21.2 °F 86% 30.25 in 10.0 mi NW 9.2 mph - N/A   Overcast
11:34 AM 24.8 °F 14.6 °F 21.2 °F 86% 30.25 in 10.0 mi NW 10.4 mph - N/A   Overcast
11:55 AM 24.8 °F 13.4 °F 21.2 °F 86% 30.25 in 10.0 mi NNW 12.7 mph - N/A   Overcast
12:14 PM 24.8 °F 12.9 °F 21.2 °F 86% 30.25 in 10.0 mi NNW 13.8 mph - N/A   Overcast
12:35 PM 24.8 °F 14.0 °F 21.2 °F 86% 30.25 in 10.0 mi NNW 11.5 mph - N/A   Overcast
12:55 PM 24.8 °F 12.9 °F 21.2 °F 86% 30.25 in 10.0 mi NNW 13.8 mph - N/A   Overcast
1:14 PM 24.8 °F 14.0 °F 21.2 °F 86% 30.25 in 10.0 mi NNW 11.5 mph - N/A   Overcast
1:34 PM 24.8 °F 13.4 °F 21.2 °F 86% 30.25 in 10.0 mi NNW 12.7 mph - N/A   Overcast
1:54 PM 24.8 °F 13.4 °F 19.4 °F 80% 30.25 in 10.0 mi NNW 12.7 mph - N/A   Overcast
2:15 PM 24.8 °F 14.0 °F 19.4 °F 80% 30.24 in 10.0 mi NNW 11.5 mph - N/A   Overcast
2:34 PM 24.8 °F 13.4 °F 19.4 °F 80% 30.24 in 10.0 mi NNW 12.7 mph - N/A   Overcast
2:54 PM 24.8 °F 14.0 °F 19.4 °F 80% 30.24 in 10.0 mi NNW 11.5 mph - N/A   Overcast
3:34 PM 24.8 °F 14.6 °F 19.4 °F 80% 30.25 in 10.0 mi NNW 10.4 mph - N/A   Overcast
3:54 PM 24.8 °F 16.1 °F 19.4 °F 80% 30.25 in 10.0 mi NNW 8.1 mph - N/A   Overcast
4:14 PM 24.8 °F 15.3 °F 19.4 °F 80% 30.25 in 10.0 mi NNW 9.2 mph - N/A   Overcast
4:34 PM 24.8 °F 15.3 °F 19.4 °F 80% 30.25 in 10.0 mi NNW 9.2 mph - N/A   Overcast
4:54 PM 24.8 °F 15.3 °F 19.4 °F 80% 30.25 in 10.0 mi NNW 9.2 mph - N/A   Overcast
5:14 PM 24.8 °F 16.1 °F 17.6 °F 74% 30.25 in 10.0 mi North 8.1 mph - N/A   Overcast
5:35 PM 23.0 °F 13.1 °F 17.6 °F 80% 30.26 in 10.0 mi NNW 9.2 mph - N/A   Overcast
6:14 PM 23.0 °F 14.7 °F 17.6 °F 80% 30.27 in 10.0 mi NNW 6.9 mph - N/A   Overcast
6:34 PM 21.2 °F 12.6 °F 17.6 °F 86% 30.27 in 10.0 mi NNW 6.9 mph - N/A   Overcast
6:55 PM 21.2 °F 12.6 °F 17.6 °F 86% 30.28 in 10.0 mi NNW 6.9 mph - N/A   Overcast
7:14 PM 21.2 °F 11.7 °F 17.6 °F 86% 30.28 in 10.0 mi NNW 8.1 mph - N/A   Overcast
7:35 PM 21.2 °F 11.7 °F 17.6 °F 86% 30.29 in 10.0 mi NNW 8.1 mph - N/A   Overcast
7:55 PM 21.2 °F 11.7 °F 17.6 °F 86% 30.29 in 10.0 mi NNW 8.1 mph - N/A   Overcast
8:14 PM 21.2 °F 11.7 °F 17.6 °F 86% 30.29 in 10.0 mi NNW 8.1 mph - N/A   Overcast
9:15 PM 19.4 °F 11.5 °F 15.8 °F 86% 30.29 in 10.0 mi NNW 5.8 mph - N/A   Overcast
9:35 PM 19.4 °F 11.5 °F 15.8 °F 86% 30.29 in 10.0 mi NW 5.8 mph - N/A   Overcast
9:54 PM 19.4 °F 12.8 °F 15.8 °F 86% 30.29 in 10.0 mi NW 4.6 mph - N/A   Overcast
10:15 PM 19.4 °F 12.8 °F 15.8 °F 86% 30.29 in 10.0 mi NW 4.6 mph - N/A   Overcast
10:35 PM 17.6 °F 10.7 °F 15.8 °F 93% 30.30 in 10.0 mi NW 4.6 mph - N/A   Overcast
10:55 PM 17.6 °F 12.3 °F 14.0 °F 86% 30.30 in 10.0 mi NW 3.5 mph - N/A   Mostly Cloudy
11:14 PM 15.8 °F 8.6 °F 12.2 °F 86% 30.30 in 10.0 mi NW 4.6 mph - N/A   Scattered Clouds
11:35 PM 15.8 °F 8.6 °F 12.2 °F 86% 30.30 in 10.0 mi NW 4.6 mph - N/A   Scattered Clouds
11:54 PM 15.8 °F 10.2 °F 12.2 °F 86% 30.30 in 10.0 mi NW 3.5 mph - N/A   Mostly Cloudy